Location: Unspecified
(0.0000°N, 0.0000°E)
Time: 03:43:01
(UTC+00:00)

Hubble Space Telescope - Pass Details

Date: 10 November 2019
Orbit: 536 x 540 km, 28.5° (Epoch: 10 November)

Event Time Altitude Azimuth Distance (km) Brightness Sun altitude
Rises 19:31:57 0° 254° (WSW) 2,674 5.7 -25.7°
Reaches altitude 10° 19:34:20 10° 262° (W) 1,782 4.4 -26.3°
Enters shadow 19:37:16 32° 301° (WNW) 923 2.2 -27.0°
